Year,Month,Day,Hour,Minute,Value (Times are PST for temperature in C)
2013,06,23,00,00,15.70
2013,06,23,00,03,15.60
2013,06,23,00,04,15.70
2013,06,23,00,05,15.70
2013,06,23,00,06,15.70
2013,06,23,00,07,15.70
2013,06,23,00,08,15.70
2013,06,23,00,09,15.70
2013,06,23,00,10,15.70
2013,06,23,00,11,15.70
2013,06,23,00,12,15.70
2013,06,23,00,13,15.70
2013,06,23,00,14,15.70
2013,06,23,00,15,15.70
2013,06,23,00,16,15.70
2013,06,23,00,17,15.70
2013,06,23,00,18,15.80
2013,06,23,00,19,15.80
2013,06,23,00,20,15.90
2013,06,23,00,21,15.90
2013,06,23,00,22,16.00
2013,06,23,00,23,16.10
2013,06,23,00,24,16.10
2013,06,23,00,25,16.10
2013,06,23,00,26,16.20
2013,06,23,00,27,16.20
2013,06,23,00,28,16.20
2013,06,23,00,29,16.20
2013,06,23,00,30,16.20
2013,06,23,00,31,16.20
2013,06,23,00,33,16.20
2013,06,23,00,34,16.20
2013,06,23,00,35,16.30
2013,06,23,00,36,16.30
2013,06,23,00,38,16.30
2013,06,23,00,39,16.20
2013,06,23,00,40,16.20
2013,06,23,00,41,16.20
2013,06,23,00,42,16.20
2013,06,23,00,43,16.20
2013,06,23,00,44,16.20
2013,06,23,00,45,16.30
2013,06,23,00,46,16.30
2013,06,23,00,47,16.30
2013,06,23,00,48,16.30
2013,06,23,00,49,16.30
2013,06,23,00,50,16.30
2013,06,23,00,51,16.30
2013,06,23,00,52,16.30
2013,06,23,00,53,16.30
2013,06,23,00,54,16.30
2013,06,23,00,55,16.30
2013,06,23,00,56,16.30
2013,06,23,00,57,16.30
2013,06,23,00,58,16.30
2013,06,23,00,59,16.30
2013,06,23,01,00,16.30
2013,06,23,01,01,16.20
2013,06,23,01,02,16.20
2013,06,23,01,03,16.20
2013,06,23,01,17,16.20
2013,06,23,01,19,16.20
2013,06,23,01,22,16.20
2013,06,23,01,26,16.20
2013,06,23,01,27,16.20
2013,06,23,01,28,16.20
2013,06,23,01,29,16.30
2013,06,23,01,30,16.30
2013,06,23,01,31,16.30
2013,06,23,01,32,16.30
2013,06,23,01,33,16.30
2013,06,23,01,34,16.30
2013,06,23,01,35,16.30
2013,06,23,01,36,16.40
2013,06,23,01,37,16.40
2013,06,23,01,38,16.40
2013,06,23,01,39,16.40
2013,06,23,01,40,16.40
2013,06,23,01,42,16.40
2013,06,23,01,43,16.40
2013,06,23,01,44,16.40
2013,06,23,01,45,16.40
2013,06,23,01,46,16.40
2013,06,23,01,48,16.40
2013,06,23,01,49,16.40
2013,06,23,01,50,16.30
2013,06,23,01,51,16.30
2013,06,23,01,53,16.30
2013,06,23,01,54,16.30
2013,06,23,01,55,16.30
2013,06,23,01,56,16.30
2013,06,23,01,57,16.30
2013,06,23,01,58,16.30
2013,06,23,01,59,16.30
2013,06,23,02,00,16.30
2013,06,23,02,01,16.30
2013,06,23,02,03,16.30
2013,06,23,02,04,16.20
2013,06,23,02,06,16.20
2013,06,23,02,08,16.20
2013,06,23,02,09,16.20
2013,06,23,02,10,16.10
2013,06,23,02,11,16.10
2013,06,23,02,13,16.10
2013,06,23,02,14,16.10
2013,06,23,02,15,16.00
2013,06,23,02,16,16.00
2013,06,23,02,17,16.00
2013,06,23,02,18,15.90
2013,06,23,02,19,15.90
2013,06,23,02,20,15.90
2013,06,23,02,21,15.90
2013,06,23,02,22,15.90
2013,06,23,02,23,15.90
2013,06,23,02,24,15.90
2013,06,23,02,25,15.80
2013,06,23,02,26,15.80
2013,06,23,02,27,15.80
2013,06,23,02,28,15.80
2013,06,23,02,29,15.70
2013,06,23,02,30,15.70
2013,06,23,02,31,15.70
2013,06,23,02,32,15.60
2013,06,23,02,33,15.60
2013,06,23,02,34,15.60
2013,06,23,02,35,15.50
2013,06,23,02,36,15.40
2013,06,23,02,37,15.40
2013,06,23,02,39,15.30
2013,06,23,02,40,15.30
2013,06,23,02,41,15.30
2013,06,23,02,42,15.20
2013,06,23,02,44,15.20
2013,06,23,02,45,15.20
2013,06,23,02,46,15.10
2013,06,23,02,47,15.10
2013,06,23,02,48,15.10
2013,06,23,02,49,15.10
2013,06,23,02,50,15.00
2013,06,23,02,51,15.00
2013,06,23,02,52,14.90
2013,06,23,02,54,14.90
2013,06,23,02,55,14.90
2013,06,23,02,56,14.90
2013,06,23,02,57,14.80
2013,06,23,02,58,14.80
2013,06,23,02,59,14.80
2013,06,23,03,00,14.80
2013,06,23,03,01,14.80
2013,06,23,03,02,14.80
2013,06,23,03,03,14.80
2013,06,23,03,04,14.90
2013,06,23,03,05,14.90
2013,06,23,03,06,14.90
2013,06,23,03,07,14.90
2013,06,23,03,08,14.90
2013,06,23,03,10,14.90
2013,06,23,03,11,14.90
2013,06,23,03,12,15.00
2013,06,23,03,13,15.00
2013,06,23,03,14,15.00
2013,06,23,03,16,15.00
2013,06,23,03,17,15.10
2013,06,23,03,18,15.10
2013,06,23,03,19,15.10
2013,06,23,03,20,15.10
2013,06,23,03,21,15.10
2013,06,23,03,22,15.10
2013,06,23,03,23,15.20
2013,06,23,03,25,15.20
2013,06,23,03,26,15.20
2013,06,23,03,27,15.20
2013,06,23,03,28,15.20
2013,06,23,03,29,15.30
2013,06,23,03,31,15.30
2013,06,23,03,32,15.30
2013,06,23,03,33,15.30
2013,06,23,03,34,15.30
2013,06,23,03,36,15.40
2013,06,23,03,37,15.40
2013,06,23,03,38,15.40
2013,06,23,03,39,15.40
2013,06,23,03,41,15.40
2013,06,23,03,42,15.50
2013,06,23,03,43,15.50
2013,06,23,03,44,15.50
2013,06,23,03,46,15.50
2013,06,23,03,47,15.60
2013,06,23,03,48,15.60
2013,06,23,03,49,15.60
2013,06,23,03,51,15.60
2013,06,23,03,52,15.60
2013,06,23,03,54,15.70
2013,06,23,03,55,15.70
2013,06,23,03,56,15.70
2013,06,23,03,57,15.70
2013,06,23,03,58,15.80
2013,06,23,04,00,15.80
2013,06,23,04,01,15.80
2013,06,23,04,02,15.80
2013,06,23,04,03,15.80
2013,06,23,04,05,15.90
2013,06,23,04,06,15.90
2013,06,23,04,08,15.90
2013,06,23,04,11,15.90
2013,06,23,04,12,15.90
2013,06,23,04,13,15.90
2013,06,23,04,15,15.90
2013,06,23,04,16,15.90
2013,06,23,04,17,15.90
2013,06,23,04,18,15.90
2013,06,23,04,20,15.90
2013,06,23,04,21,15.90
2013,06,23,04,22,15.90
2013,06,23,04,23,15.90
2013,06,23,04,25,15.90
2013,06,23,04,26,15.90
2013,06,23,04,27,15.90
2013,06,23,04,28,15.90
2013,06,23,04,30,15.90
2013,06,23,04,31,15.90
2013,06,23,04,32,15.90
2013,06,23,04,34,15.90
2013,06,23,04,35,15.90
2013,06,23,04,36,15.90
2013,06,23,04,37,15.90
2013,06,23,04,38,15.90
2013,06,23,04,39,15.90
2013,06,23,04,40,15.90
2013,06,23,04,41,15.90
2013,06,23,04,43,15.90
2013,06,23,04,44,15.90
2013,06,23,04,45,15.90
2013,06,23,04,46,15.90
2013,06,23,04,48,15.90
2013,06,23,04,49,15.90
2013,06,23,04,50,15.90
2013,06,23,04,51,15.90
2013,06,23,04,53,15.90
2013,06,23,04,54,15.90
2013,06,23,04,55,15.80
2013,06,23,04,57,15.80
2013,06,23,04,58,15.80
2013,06,23,04,59,15.80
2013,06,23,05,00,15.80
2013,06,23,05,01,15.80
2013,06,23,05,02,15.80
2013,06,23,05,03,15.80
2013,06,23,05,04,15.80
2013,06,23,05,06,15.80
2013,06,23,05,07,15.80
2013,06,23,05,08,15.80
2013,06,23,05,09,15.80
2013,06,23,05,11,15.80
2013,06,23,05,12,15.80
2013,06,23,05,13,15.70
2013,06,23,05,14,15.70
2013,06,23,05,15,15.70
2013,06,23,05,17,15.70
2013,06,23,05,18,15.70
2013,06,23,05,19,15.70
2013,06,23,05,21,15.70
2013,06,23,05,22,15.70
2013,06,23,05,23,15.60
2013,06,23,05,24,15.60
2013,06,23,05,26,15.60
2013,06,23,05,27,15.60
2013,06,23,05,28,15.60
2013,06,23,05,29,15.60
2013,06,23,05,30,15.60
2013,06,23,05,32,15.60
2013,06,23,05,33,15.60
2013,06,23,05,34,15.60
2013,06,23,05,35,15.60
2013,06,23,05,37,15.60
2013,06,23,05,38,15.60
2013,06,23,05,39,15.60
2013,06,23,05,40,15.60
2013,06,23,05,41,15.60
2013,06,23,05,42,15.60
2013,06,23,05,43,15.60
2013,06,23,05,44,15.60
2013,06,23,05,45,15.60
2013,06,23,05,46,15.60
2013,06,23,05,47,15.60
2013,06,23,05,48,15.60
2013,06,23,05,49,15.60
2013,06,23,05,50,15.60
2013,06,23,05,51,15.60
2013,06,23,05,52,15.60
2013,06,23,05,53,15.60
2013,06,23,05,54,15.50
2013,06,23,05,55,15.50
2013,06,23,05,57,15.50
2013,06,23,05,58,15.50
2013,06,23,05,59,15.50
2013,06,23,06,00,15.50
2013,06,23,06,01,15.60
2013,06,23,06,02,15.50
2013,06,23,06,03,15.50
2013,06,23,06,04,15.50
2013,06,23,06,05,15.50
2013,06,23,06,06,15.50
2013,06,23,06,07,15.60
2013,06,23,06,08,15.50
2013,06,23,06,09,15.60
2013,06,23,06,11,15.60
2013,06,23,06,12,15.50
2013,06,23,06,13,15.50
2013,06,23,06,14,15.60
2013,06,23,06,15,15.60
2013,06,23,06,16,15.60
2013,06,23,06,17,15.60
2013,06,23,06,18,15.60
2013,06,23,06,19,15.60
2013,06,23,06,20,15.60
2013,06,23,06,22,15.60
2013,06,23,06,23,15.60
2013,06,23,06,24,15.60
2013,06,23,06,25,15.60
2013,06,23,06,26,15.60
2013,06,23,06,27,15.60
2013,06,23,06,29,15.60
2013,06,23,06,30,15.60
2013,06,23,06,32,15.60
2013,06,23,06,33,15.70
2013,06,23,06,34,15.70
2013,06,23,06,35,15.70
2013,06,23,06,37,15.70
2013,06,23,06,38,15.70
2013,06,23,06,39,15.70
2013,06,23,06,40,15.70
2013,06,23,06,41,15.70
2013,06,23,06,42,15.70
2013,06,23,06,43,15.70
2013,06,23,06,44,15.70
2013,06,23,06,46,15.70
2013,06,23,06,47,15.70
2013,06,23,06,48,15.70
2013,06,23,06,49,15.70
2013,06,23,06,50,15.70
2013,06,23,06,51,15.70
2013,06,23,06,52,15.70
2013,06,23,06,53,15.70
2013,06,23,06,54,15.70
2013,06,23,06,55,15.70
2013,06,23,06,57,15.70
2013,06,23,06,58,15.70
2013,06,23,06,59,15.80
2013,06,23,07,00,15.80
2013,06,23,07,02,15.80
2013,06,23,07,03,15.80
2013,06,23,07,04,15.80
2013,06,23,07,05,15.80
2013,06,23,07,06,15.80
2013,06,23,07,07,15.80
2013,06,23,07,08,15.80
2013,06,23,07,09,15.80
2013,06,23,07,10,15.80
2013,06,23,07,12,15.80
2013,06,23,07,13,15.80
2013,06,23,07,14,15.80
2013,06,23,07,16,15.80
2013,06,23,07,17,15.90
2013,06,23,07,18,15.80
2013,06,23,07,19,15.80
2013,06,23,07,21,15.90
2013,06,23,07,22,15.90
2013,06,23,07,23,15.90
2013,06,23,07,25,15.90
2013,06,23,07,26,15.90
2013,06,23,07,27,15.90
2013,06,23,07,29,15.90
2013,06,23,07,30,16.00
2013,06,23,07,31,16.00
2013,06,23,07,32,16.10
2013,06,23,07,33,16.10
2013,06,23,07,35,16.10
2013,06,23,07,36,16.10
2013,06,23,07,37,16.10
2013,06,23,07,38,16.20
2013,06,23,07,40,16.20
2013,06,23,07,41,16.20
2013,06,23,07,42,16.20
2013,06,23,07,43,16.20
2013,06,23,07,44,16.20
2013,06,23,07,45,16.30
2013,06,23,07,46,16.30
2013,06,23,07,47,16.30
2013,06,23,07,49,16.30
2013,06,23,07,50,16.30
2013,06,23,07,51,16.30
2013,06,23,07,52,16.30
2013,06,23,07,53,16.30
2013,06,23,07,54,16.30
2013,06,23,07,55,16.30
2013,06,23,07,56,16.30
2013,06,23,07,57,16.30
2013,06,23,07,58,16.30
2013,06,23,07,59,16.30
2013,06,23,08,01,16.20
2013,06,23,08,02,16.30
2013,06,23,08,03,16.20
2013,06,23,08,05,16.20
2013,06,23,08,06,16.20
2013,06,23,08,07,16.20
2013,06,23,08,08,16.20
2013,06,23,08,09,16.20
2013,06,23,08,11,16.20
2013,06,23,08,12,16.10
2013,06,23,08,13,16.10
2013,06,23,08,14,16.10
2013,06,23,08,15,16.10
2013,06,23,08,17,16.10
2013,06,23,08,18,16.10
2013,06,23,08,19,16.00
2013,06,23,08,20,16.00
2013,06,23,08,22,16.00
2013,06,23,08,23,15.90
2013,06,23,08,24,15.90
2013,06,23,08,25,15.90
2013,06,23,08,26,15.90
2013,06,23,08,27,15.90
2013,06,23,08,28,15.90
2013,06,23,08,29,15.90
2013,06,23,08,30,15.90
2013,06,23,08,31,15.80
2013,06,23,08,33,15.80
2013,06,23,08,34,15.80
2013,06,23,08,35,15.80
2013,06,23,08,37,15.80
2013,06,23,08,38,15.80
2013,06,23,08,39,15.80
2013,06,23,08,40,15.80
2013,06,23,08,41,15.80
2013,06,23,08,42,15.80
2013,06,23,08,43,15.80
2013,06,23,08,44,15.80
2013,06,23,08,45,15.80
2013,06,23,08,46,15.80
2013,06,23,08,47,15.80
2013,06,23,08,48,15.80
2013,06,23,08,49,15.80
2013,06,23,08,51,15.80
2013,06,23,08,52,15.90
2013,06,23,08,53,15.90
2013,06,23,08,54,15.90
2013,06,23,08,55,15.90
2013,06,23,08,56,15.90
2013,06,23,08,57,15.90
2013,06,23,08,58,15.90
2013,06,23,08,59,15.90
2013,06,23,09,00,15.90
2013,06,23,09,02,15.90
2013,06,23,09,03,15.90
2013,06,23,09,04,16.00
2013,06,23,09,05,16.00
2013,06,23,09,06,16.00
2013,06,23,09,08,16.00
2013,06,23,09,09,16.10
2013,06,23,09,10,16.10
2013,06,23,09,11,16.10
2013,06,23,09,13,16.10
2013,06,23,09,14,16.10
2013,06,23,09,15,16.10
2013,06,23,09,16,16.10
2013,06,23,09,17,16.20
2013,06,23,09,19,16.20
2013,06,23,09,20,16.20
2013,06,23,09,21,16.20
2013,06,23,09,22,16.20
2013,06,23,09,24,16.20
2013,06,23,09,25,16.20
2013,06,23,09,26,16.20
2013,06,23,09,27,16.20
2013,06,23,09,29,16.20
2013,06,23,09,30,16.20
2013,06,23,09,31,16.20
2013,06,23,09,32,16.20
2013,06,23,09,33,16.30
2013,06,23,09,34,16.30
2013,06,23,09,35,16.30
2013,06,23,09,36,16.30
2013,06,23,09,37,16.30
2013,06,23,09,38,16.30
2013,06,23,09,39,16.40
2013,06,23,09,40,16.40
2013,06,23,09,41,16.40
2013,06,23,09,42,16.40
2013,06,23,09,43,16.40
2013,06,23,09,44,16.40
2013,06,23,09,45,16.40
2013,06,23,09,46,16.40
2013,06,23,09,47,16.40
2013,06,23,09,48,16.50
2013,06,23,09,49,16.50
2013,06,23,09,50,16.60
2013,06,23,09,51,16.50
2013,06,23,09,53,16.60
2013,06,23,09,54,16.60
2013,06,23,09,55,16.60
2013,06,23,09,56,16.60
2013,06,23,09,57,16.50
2013,06,23,09,58,16.50
2013,06,23,09,59,16.40
2013,06,23,10,00,16.40
2013,06,23,10,01,16.40
2013,06,23,10,02,16.40
2013,06,23,10,03,16.40
2013,06,23,10,04,16.40
2013,06,23,10,05,16.40
2013,06,23,10,06,16.40
2013,06,23,10,07,16.40
2013,06,23,10,08,16.40
2013,06,23,10,09,16.40
2013,06,23,10,10,16.40
2013,06,23,10,12,16.40
2013,06,23,10,13,16.40
2013,06,23,10,14,16.40
2013,06,23,10,16,16.40
2013,06,23,10,17,16.40
2013,06,23,10,18,16.40
2013,06,23,10,19,16.50
2013,06,23,10,21,16.50
2013,06,23,10,22,16.50
2013,06,23,10,23,16.50
2013,06,23,10,24,16.50
2013,06,23,10,25,16.50
2013,06,23,10,26,16.50
2013,06,23,10,27,16.50
2013,06,23,10,28,16.50
2013,06,23,10,30,16.50
2013,06,23,10,31,16.50
2013,06,23,10,32,16.50
2013,06,23,10,33,16.60
2013,06,23,10,34,16.50
2013,06,23,10,35,16.50
2013,06,23,10,36,16.40
2013,06,23,10,37,16.40
2013,06,23,10,39,16.50
2013,06,23,10,40,16.50
2013,06,23,10,41,16.50
2013,06,23,10,42,16.50
2013,06,23,10,43,16.50
2013,06,23,10,44,16.50
2013,06,23,10,45,16.50
2013,06,23,10,46,16.40
2013,06,23,10,47,16.40
2013,06,23,10,49,16.40
2013,06,23,10,50,16.40
2013,06,23,10,51,16.50
2013,06,23,10,52,16.50
2013,06,23,10,54,16.60
2013,06,23,10,55,16.60
2013,06,23,10,56,16.60
2013,06,23,10,57,16.60
2013,06,23,10,59,16.60
2013,06,23,11,00,16.60
2013,06,23,11,01,16.60
2013,06,23,11,02,16.60
2013,06,23,11,03,16.60
2013,06,23,11,04,16.60
2013,06,23,11,05,16.60
2013,06,23,11,06,16.50
2013,06,23,11,07,16.50
2013,06,23,11,09,16.40
2013,06,23,11,10,16.50
2013,06,23,11,11,16.50
2013,06,23,11,12,16.60
2013,06,23,11,14,16.60
2013,06,23,11,15,16.60
2013,06,23,11,16,16.60
2013,06,23,11,17,16.60
2013,06,23,11,19,16.70
2013,06,23,11,20,16.70
2013,06,23,11,21,16.70
2013,06,23,11,22,16.70
2013,06,23,11,23,16.70
2013,06,23,11,24,16.70
2013,06,23,11,25,16.80
2013,06,23,11,26,16.80
2013,06,23,11,27,16.80
2013,06,23,11,29,16.90
2013,06,23,11,30,16.90
2013,06,23,11,31,16.90
2013,06,23,11,33,16.90
2013,06,23,11,34,16.90
2013,06,23,11,35,16.90
2013,06,23,11,36,17.00
2013,06,23,11,37,17.00
2013,06,23,11,38,17.10
2013,06,23,11,39,17.10
2013,06,23,11,40,17.10
2013,06,23,11,41,17.10
2013,06,23,11,42,17.10
2013,06,23,11,43,17.20
2013,06,23,11,44,17.20
2013,06,23,11,45,17.20
2013,06,23,11,46,17.20
2013,06,23,11,47,17.20
2013,06,23,11,49,17.20
2013,06,23,11,50,17.20
2013,06,23,11,51,17.10
2013,06,23,11,52,17.10
2013,06,23,11,53,17.00
2013,06,23,11,54,17.00
2013,06,23,11,55,17.00
2013,06,23,11,56,16.90
2013,06,23,11,57,16.90
2013,06,23,11,58,16.90
2013,06,23,11,59,16.90
2013,06,23,12,01,16.90
2013,06,23,12,02,16.90
2013,06,23,12,03,16.90
2013,06,23,12,04,16.80
2013,06,23,12,05,16.80
2013,06,23,12,06,16.80
2013,06,23,12,07,16.70
2013,06,23,12,08,16.70
2013,06,23,12,09,16.70
2013,06,23,12,11,16.60
2013,06,23,12,12,16.60
2013,06,23,12,13,16.60
2013,06,23,12,14,16.60
2013,06,23,12,15,16.70
2013,06,23,12,16,16.70
2013,06,23,12,17,16.70
2013,06,23,12,18,16.80
2013,06,23,12,19,16.70
2013,06,23,12,20,16.70
2013,06,23,12,21,16.70
2013,06,23,12,22,16.70
2013,06,23,12,23,16.70
2013,06,23,12,24,16.80
2013,06,23,12,26,16.80
2013,06,23,12,27,16.90
2013,06,23,12,28,16.90
2013,06,23,12,29,17.00
2013,06,23,12,30,17.10
2013,06,23,12,32,17.10
2013,06,23,12,33,17.20
2013,06,23,12,34,17.20
2013,06,23,12,36,17.30
2013,06,23,12,37,17.30
2013,06,23,12,38,17.30
2013,06,23,12,39,17.30
2013,06,23,12,41,17.30
2013,06,23,12,42,17.20
2013,06,23,12,43,17.20
2013,06,23,12,44,17.20
2013,06,23,12,46,17.10
2013,06,23,12,47,17.10
2013,06,23,12,48,17.10
2013,06,23,12,49,17.00
2013,06,23,12,50,16.90
2013,06,23,12,51,16.90
2013,06,23,12,52,16.90
2013,06,23,12,53,16.90
2013,06,23,12,54,16.90
2013,06,23,12,56,16.90
2013,06,23,12,57,17.00
2013,06,23,12,58,17.10
2013,06,23,12,59,17.10
2013,06,23,13,00,17.10
2013,06,23,13,02,17.20
2013,06,23,13,03,17.20
2013,06,23,13,04,17.20
2013,06,23,13,05,17.30
2013,06,23,13,07,17.30
2013,06,23,13,08,17.40
2013,06,23,13,09,17.40
2013,06,23,13,10,17.40
2013,06,23,13,11,17.40
2013,06,23,13,13,17.40
2013,06,23,13,14,17.50
2013,06,23,13,15,17.50
2013,06,23,13,16,17.60
2013,06,23,13,18,17.60
2013,06,23,13,19,17.60
2013,06,23,13,20,17.70
2013,06,23,13,21,17.70
2013,06,23,13,23,17.70
2013,06,23,13,24,17.80
2013,06,23,13,25,17.70
2013,06,23,13,26,17.70
2013,06,23,13,27,17.70
2013,06,23,13,28,17.60
2013,06,23,13,29,17.50
2013,06,23,13,30,17.40
2013,06,23,13,31,17.40
2013,06,23,13,33,17.40
2013,06,23,13,34,17.40
2013,06,23,13,35,17.40
2013,06,23,13,36,17.40
2013,06,23,13,37,17.50
2013,06,23,13,39,17.50
2013,06,23,13,40,17.60
2013,06,23,13,41,17.70
2013,06,23,13,42,17.70
2013,06,23,13,43,17.70
2013,06,23,13,44,17.70
2013,06,23,13,45,17.70
2013,06,23,13,46,17.70
2013,06,23,13,47,17.80
2013,06,23,13,49,17.80
2013,06,23,13,50,17.80
2013,06,23,13,51,17.90
2013,06,23,13,53,17.90
2013,06,23,13,54,18.10
2013,06,23,13,55,18.20
2013,06,23,13,56,18.20
2013,06,23,13,58,18.20
2013,06,23,13,59,18.20
2013,06,23,14,00,18.20
2013,06,23,14,01,18.20
2013,06,23,14,02,18.20
2013,06,23,14,04,18.20
2013,06,23,14,05,18.20
2013,06,23,14,06,18.20
2013,06,23,14,08,18.30
2013,06,23,14,09,18.30
2013,06,23,14,10,18.20
2013,06,23,14,12,18.20
2013,06,23,14,13,18.00
2013,06,23,14,14,17.90
2013,06,23,14,15,17.80
2013,06,23,14,16,17.80
2013,06,23,14,17,17.80
2013,06,23,14,18,17.80
2013,06,23,14,19,17.70
2013,06,23,14,22,17.70
2013,06,23,14,23,17.70
2013,06,23,14,24,17.70
2013,06,23,14,25,17.70
2013,06,23,14,27,17.70
2013,06,23,14,28,17.60
2013,06,23,14,29,17.60
2013,06,23,14,30,17.60
2013,06,23,14,31,17.60
2013,06,23,14,32,17.60
2013,06,23,14,33,17.60
2013,06,23,14,34,17.60
2013,06,23,14,35,17.60
2013,06,23,14,37,17.60
2013,06,23,14,38,17.60
2013,06,23,14,39,17.60
2013,06,23,14,40,17.60
2013,06,23,14,42,17.60
2013,06,23,14,43,17.60
2013,06,23,14,44,17.60
2013,06,23,14,45,17.60
2013,06,23,14,46,17.50
2013,06,23,14,48,17.50
2013,06,23,14,49,17.50
2013,06,23,14,50,17.40
2013,06,23,14,51,17.40
2013,06,23,14,52,17.40
2013,06,23,14,54,17.40
2013,06,23,14,55,17.50
2013,06,23,14,56,17.50
2013,06,23,14,58,17.60
2013,06,23,14,59,17.60
2013,06,23,15,00,17.60
2013,06,23,15,01,17.70
2013,06,23,15,02,17.70
2013,06,23,15,04,17.60
2013,06,23,15,05,17.60
2013,06,23,15,06,17.60
2013,06,23,15,07,17.70
2013,06,23,15,08,17.70
2013,06,23,15,09,17.70
2013,06,23,15,10,17.70
2013,06,23,15,11,17.70
2013,06,23,15,12,17.70
2013,06,23,15,13,17.70
2013,06,23,15,15,17.80
2013,06,23,15,16,17.80
2013,06,23,15,17,17.90
2013,06,23,15,18,17.90
2013,06,23,15,19,17.90
2013,06,23,15,20,17.90
2013,06,23,15,21,17.90
2013,06,23,15,22,17.90
2013,06,23,15,23,17.90
2013,06,23,15,25,18.00
2013,06,23,15,26,18.10
2013,06,23,15,27,18.10
2013,06,23,15,29,18.20
2013,06,23,15,30,18.20
2013,06,23,15,31,18.20
2013,06,23,15,32,18.20
2013,06,23,15,33,18.20
2013,06,23,15,35,18.20
2013,06,23,15,36,18.20
2013,06,23,15,37,18.20
2013,06,23,15,38,18.20
2013,06,23,15,39,18.20
2013,06,23,15,41,18.20
2013,06,23,15,42,18.20
2013,06,23,15,43,18.20
2013,06,23,15,44,18.20
2013,06,23,15,46,18.30
2013,06,23,15,47,18.30
2013,06,23,15,48,18.30
2013,06,23,15,49,18.30
2013,06,23,15,51,18.30
2013,06,23,15,52,18.30
2013,06,23,15,53,18.30
2013,06,23,15,54,18.40
2013,06,23,15,55,18.40
2013,06,23,15,57,18.40
2013,06,23,15,58,18.50
2013,06,23,15,59,18.60
2013,06,23,16,00,18.60
2013,06,23,16,02,18.60
2013,06,23,16,03,18.50
2013,06,23,16,04,18.50
2013,06,23,16,05,18.40
2013,06,23,16,06,18.40
2013,06,23,16,07,18.40
2013,06,23,16,08,18.30
2013,06,23,16,09,18.30
2013,06,23,16,10,18.30
2013,06,23,16,12,18.30
2013,06,23,16,13,18.30
2013,06,23,16,14,18.30
2013,06,23,16,16,18.30
2013,06,23,16,17,18.30
2013,06,23,16,18,18.30
2013,06,23,16,19,18.30
2013,06,23,16,20,18.30
2013,06,23,16,21,18.30
2013,06,23,16,22,18.30
2013,06,23,16,23,18.40
2013,06,23,16,25,18.40
2013,06,23,16,26,18.50
2013,06,23,16,27,18.50
2013,06,23,16,28,18.60
2013,06,23,16,30,18.60
2013,06,23,16,31,18.60
2013,06,23,16,32,18.50
2013,06,23,16,33,18.50
2013,06,23,16,34,18.50
2013,06,23,16,36,18.50
2013,06,23,16,37,18.50
2013,06,23,16,38,18.50
2013,06,23,16,39,18.40
2013,06,23,16,40,18.40
2013,06,23,16,41,18.40
2013,06,23,16,42,18.40
2013,06,23,16,43,18.40
2013,06,23,16,44,18.40
2013,06,23,16,45,18.40
2013,06,23,16,47,18.40
2013,06,23,16,48,18.40
2013,06,23,16,49,18.40
2013,06,23,16,50,18.40
2013,06,23,16,52,18.40
2013,06,23,16,53,18.30
2013,06,23,16,54,18.30
2013,06,23,16,55,18.20
2013,06,23,16,57,18.20
2013,06,23,16,58,18.10
2013,06,23,16,59,18.10
2013,06,23,17,00,18.00
2013,06,23,17,02,18.00
2013,06,23,17,03,18.00
2013,06,23,17,04,18.10
2013,06,23,17,05,18.10
2013,06,23,17,07,18.10
2013,06,23,17,08,18.10
2013,06,23,17,09,18.10
2013,06,23,17,10,18.20
2013,06,23,17,11,18.20
2013,06,23,17,12,18.20
2013,06,23,17,13,18.20
2013,06,23,17,14,18.20
2013,06,23,17,15,18.10
2013,06,23,17,16,18.10
2013,06,23,17,17,18.10
2013,06,23,17,18,18.10
2013,06,23,17,19,18.10
2013,06,23,17,20,18.00
2013,06,23,17,22,18.00
2013,06,23,17,23,18.00
2013,06,23,17,24,18.00
2013,06,23,17,25,18.10
2013,06,23,17,26,18.10
2013,06,23,17,27,18.10
2013,06,23,17,28,18.10
2013,06,23,17,29,18.00
2013,06,23,17,30,18.00
2013,06,23,17,32,18.00
2013,06,23,17,33,18.00
2013,06,23,17,34,18.00
2013,06,23,17,35,17.90
2013,06,23,17,36,17.90
2013,06,23,17,37,18.00
2013,06,23,17,38,18.00
2013,06,23,17,39,18.00
2013,06,23,17,40,18.00
2013,06,23,17,41,18.10
2013,06,23,17,42,18.10
2013,06,23,17,43,18.10
2013,06,23,17,44,18.00
2013,06,23,17,46,17.90
2013,06,23,17,47,17.90
2013,06,23,17,48,17.90
2013,06,23,17,49,17.80
2013,06,23,17,50,17.80
2013,06,23,17,52,17.80
2013,06,23,17,53,17.70
2013,06,23,17,54,17.70
2013,06,23,17,55,17.70
2013,06,23,17,56,17.70
2013,06,23,17,57,17.70
2013,06,23,17,58,17.60
2013,06,23,17,59,17.60
2013,06,23,18,00,17.60
2013,06,23,18,02,17.60
2013,06,23,18,03,17.60
2013,06,23,18,04,17.50
2013,06,23,18,05,17.50
2013,06,23,18,07,17.40
2013,06,23,18,08,17.40
2013,06,23,18,09,17.40
2013,06,23,18,10,17.40
2013,06,23,18,12,17.40
2013,06,23,18,13,17.40
2013,06,23,18,14,17.40
2013,06,23,18,16,17.30
2013,06,23,18,17,17.30
2013,06,23,18,18,17.30
2013,06,23,18,19,17.30
2013,06,23,18,21,17.30
2013,06,23,18,22,17.30
2013,06,23,18,23,17.30
2013,06,23,18,25,17.20
2013,06,23,18,26,17.20
2013,06,23,18,27,17.20
2013,06,23,18,28,17.20
2013,06,23,18,29,17.10
2013,06,23,18,31,17.10
2013,06,23,18,32,17.10
2013,06,23,18,33,17.10
2013,06,23,18,34,17.10
2013,06,23,18,36,17.10
2013,06,23,18,37,17.10
2013,06,23,18,38,17.00
2013,06,23,18,40,17.00
2013,06,23,18,41,16.90
2013,06,23,18,42,16.90
2013,06,23,18,43,16.90
2013,06,23,18,44,16.90
2013,06,23,18,45,16.90
2013,06,23,18,46,16.90
2013,06,23,18,48,16.80
2013,06,23,18,49,16.80
2013,06,23,18,50,16.80
2013,06,23,18,52,16.80
2013,06,23,18,53,16.80
2013,06,23,18,54,16.80
2013,06,23,18,55,16.80
2013,06,23,18,56,16.80
2013,06,23,18,58,16.80
2013,06,23,18,59,16.80
2013,06,23,19,00,16.80
2013,06,23,19,01,16.80
2013,06,23,19,02,16.80
2013,06,23,19,04,16.80
2013,06,23,19,05,16.70
2013,06,23,19,06,16.70
2013,06,23,19,08,16.70
2013,06,23,19,09,16.70
2013,06,23,19,10,16.70
2013,06,23,19,11,16.70
2013,06,23,19,13,16.60
2013,06,23,19,14,16.60
2013,06,23,19,15,16.60
2013,06,23,19,16,16.60
2013,06,23,19,18,16.60
2013,06,23,19,19,16.60
2013,06,23,19,20,16.60
2013,06,23,19,21,16.60
2013,06,23,19,22,16.50
2013,06,23,19,24,16.60
2013,06,23,19,25,16.50
2013,06,23,19,26,16.50
2013,06,23,19,27,16.50
2013,06,23,19,29,16.40
2013,06,23,19,30,16.40
2013,06,23,19,31,16.40
2013,06,23,19,32,16.40
2013,06,23,19,34,16.40
2013,06,23,19,35,16.30
2013,06,23,19,36,16.30
2013,06,23,19,37,16.30
2013,06,23,19,39,16.30
2013,06,23,19,40,16.30
2013,06,23,19,41,16.30
2013,06,23,19,42,16.20
2013,06,23,19,43,16.20
2013,06,23,19,45,16.20
2013,06,23,19,46,16.20
2013,06,23,19,47,16.20
2013,06,23,19,48,16.20
2013,06,23,19,50,16.20
2013,06,23,19,51,16.20
2013,06,23,19,52,16.20
2013,06,23,19,53,16.20
2013,06,23,19,54,16.20
2013,06,23,19,55,16.20
2013,06,23,19,56,16.20
2013,06,23,19,57,16.20
2013,06,23,19,58,16.20
2013,06,23,19,59,16.20
2013,06,23,20,01,16.10
2013,06,23,20,02,16.10
2013,06,23,20,03,16.10
2013,06,23,20,04,16.10
2013,06,23,20,05,16.10
2013,06,23,20,06,16.10
2013,06,23,20,07,16.10
2013,06,23,20,08,16.10
2013,06,23,20,10,16.10
2013,06,23,20,11,16.10
2013,06,23,20,12,16.00
2013,06,23,20,13,16.00
2013,06,23,20,14,16.00
2013,06,23,20,15,16.00
2013,06,23,20,16,16.00
2013,06,23,20,17,16.10
2013,06,23,20,18,16.00
2013,06,23,20,19,16.00
2013,06,23,20,20,16.00
2013,06,23,20,21,16.00
2013,06,23,20,22,16.00
2013,06,23,20,24,16.00
2013,06,23,20,25,16.00
2013,06,23,20,26,16.00